Regional Weather Roundup
Issued by NWS Upton, NY

Current Version | Previous Version | Text Only | Print | Product List | Glossary On
Versions: 1 2 3 4 5 6 7 8 9 10 11 12 13 14 15 16 17 18 19 20 21 22 23 24 25 26 27 28 29 30 31 32 33 34 35 36 37 38 39 40 41 42 43 44 45 46 47 48 49 50
172
ASUS41 KOKX 250605
RWROKX

REGIONAL WEATHER ROUNDUP
NATIONAL WEATHER SERVICE NEW YORK NY
200 AM EDT MON JUL 25 2016

NOTE: "FAIR" INDICATES FEW OR NO CLOUDS BELOW 12,000 FEET WITH NO
SIGNIFICANT WEATHER AND/OR OBSTRUCTIONS TO VISIBILITY.

NYZ071-072-176-178-NJZ106-104-250700-
NEW YORK CITY METRO AREA

CITY           SKY/WX    TMP DP  RH WIND       PRES   REMARKS
Central Park   CLOUDY    81  66  60 VRB6      29.98F
LaGuardia APRT CLOUDY    84  66  54 S7        29.94F
Kennedy INTL   MOCLDY    75  69  81 S8        29.96F
Newark/Liberty CLOUDY    81  65  58 SW8       29.94F
BRNX BOT. GARD   N/A     79  64  61 SW1       29.96F
Wall St Helipt CLOUDY    81  68  65 W5        29.96S
Teterboro      CLOUDY    80  66  62 S5        29.94S
$$

NYZ177-179-078>081-250700-
LONG ISLAND NEW YORK

CITY           SKY/WX    TMP DP  RH WIND       PRES   REMARKS
FARMINGDALE    PTCLDY    75  70  84 SW7       29.96F
ISLIP          PTCLDY    76  71  85 SW10      29.96F
SHIRLEY        PTCLDY    73  70  90 S3        29.97F
RIVERHEAD      NOT AVBL
WESTHAMPTON    PTCLDY    72  67  84 CALM      29.98F
SOUTHAMPTON      N/A     72  70  94 SW2       29.93F
BRIDGEHAMPTON    N/A     72  66  83 CALM      29.96F
EAST HAMPTON   FAIR      74  65  74 SW6       29.96F
MONTAUK POINT    N/A     68  64  87 CALM      29.98F
$$

NYZ052-065-067-250700-
HUDSON VALLEY

CITY           SKY/WX    TMP DP  RH WIND       PRES   REMARKS
WHITE PLAINS   PTCLDY    72  67  84 CALM      29.96F
NEWBURGH       CLEAR     73  66  78 VRB5      29.96F
MONTGOMERY     CLOUDY    68  64  87 CALM      29.94F
POUGHKEEPSIE   PTCLDY    71  65  81 CALM      29.93F
ALBANY         MOCLDY    69  62  78 CALM      29.94F
$$

NJZ001-105-106-008-010-013-015-019>022-104-250700-
NEW JERSEY

CITY           SKY/WX    TMP DP  RH WIND       PRES   REMARKS
NEWARK/LIBERTY CLOUDY    81  65  58 SW8       29.94F
TETERBORO      CLOUDY    80  66  62 S5        29.94S
CALDWELL       CLOUDY    80  67  64 SW3       29.95F
MORRISTOWN     CLOUDY    75  64  69 CALM      29.95F
SOMERVILLE     CLOUDY    75  69  81 CALM      29.93F
SUSSEX         MOCLDY    71  68  90 CALM      29.95F
ANDOVER          N/A     73  67  81 SW5       29.95F
TRENTON        CLOUDY    79  64  60 S5        29.95F
MILLVILLE      CLOUDY    78  75  90 CALM      29.97F
ATLANTIC CITY  CLOUDY    79  75  89 S6        29.97F
WRIGHTSTOWN    LGT RAIN  75  70  83 S5        29.94F
TOMS RIVER     MOCLDY    75  73  94 SW5       29.97F
BELMAR         CLOUDY    76  69  79 SW7       29.98F
$$

PAZ047>061-062-071-250700-
EASTERN PENNSYLVANIA

CITY           SKY/WX    TMP DP  RH WIND       PRES   REMARKS
PHILADELPHIA   CLOUDY    82  68  62 S5        29.96F
ALLENTOWN      MOCLDY    82  66  58 SW6       29.95F
SCRANTON       MOCLDY    77  67  71 CALM      29.96F
$$

CTZ002-004>006-009-010-012-RIZ004-006-007-MAZ004-011-015-250700-
SOUTHERN NEW ENGLAND
 IN CT

CITY           SKY/WX    TMP DP  RH WIND       PRES   REMARKS
BRADLEY INTL   MOCLDY    70  60  70 CALM      29.95F
HARTFORD       CLOUDY    75  67  76 CALM      29.95F
DANBURY        PTCLDY    69  65  86 CALM      29.98F
WTRBRY/OXFORD    N/A     66  61  82 CALM      29.98F
BRIDGEPORT     PTCLDY    76  70  82 CALM      29.95F
MERIDEN        CLEAR     69  64  84 CALM      29.96F
NEW HAVEN      PTCLDY    70  67  90 CALM      29.96F
CHESTER        FAIR      72  70  94 CALM      29.97F
GROTON         CLEAR     73  67  81 CALM      29.96F
WILLIMANTIC    NOT AVBL

 IN RI

CITY           SKY/WX    TMP DP  RH WIND       PRES   REMARKS
PROVIDENCE     CLEAR     73  64  73 CALM      29.96F
BLOCK ISLAND   CLEAR     70  65  84 SW8       29.98F
WESTERLY       CLEAR     68  63  84 CALM      29.97F

 IN MA

CITY           SKY/WX    TMP DP  RH WIND       PRES   REMARKS
BOSTON         PTCLDY    70  65  84 CALM      29.95F
WORCESTER      CLOUDY    69  52  54 SW5       30.00F
WESTFIELD      MOCLDY    67  60  78 CALM      29.96F
PROVINCETOWN   CLEAR     66  65  96 CALM      29.95F
NANTUCKET      CLEAR     69  67  93 SW7       29.97F
$$

ANZ330-335-338-340-345-350-353-355-250700-
COASTAL MARINE OBSERVATIONS


STATION/POSITION TIME  SKY/WX   TEMP    WIND        PRES    VSBY  WAVE
                                AIR SEA DIR/SP/G                  HT/PER
                 (UTC)          (F)     (DEG/KT/KT) (MB)    (MI)  (FT/S)
NY HARB ENTRANCE 0450            76 73  210/ 12/ 14 1014.3          2/ 4
20S FIRE ISLAND  0450            76 73  220/ 10/ 12 1014.2          3/ 6
GREAT SOUTH BAY  0500            76 81  200/  2/  4   N/A
23 SSW MONTAUK P 0450            75 72  230/ 10/ 12 1015.4          2/ 6
15 E BARNEGAT LI 0522               76                N/A           2/ 6
HUDSON CANYON    0450            78 77              1015.1          2/ 6
KINGS POINT      0500            78 73              1014.2
EXECUTION ROCKS  0500            73      20/  4/  4   N/A
CENTRAL LI SOUND 0500            75 74  220/ 10/ 12   N/A           1/ 3
EASTERN LI SOUND 0500            71 69  190/  2/  4   N/A
ROBBINS REEF     0500            80     150/  5/  6 1013.8
$$


>>>>>>>>>>>>>>>>>>>>>>>>>>>> KEY <<<<<<<<<<<<<<<<<<<<<<<<<<<
>                                                          <
>     SKY/WX - SKY CONDITION/PRESENT WEATHER               <
>     TMP    - TEMPERATURE IN FAHRENHEIT                   <
>     DP     - DEWPOINT IN FAHRENHEIT                      <
>     RH     - RELATIVE HUMIDITY IN PERCENT                <
>     WIND   - DIRECTION AND SPEED IN MPH                  <
>     PRES   - MEAN SEA LEVEL PRESSURE IN INCHES OF HG     <
>     WCI    - WIND CHILL INDEX                            <
>     VSB    - VISIBILITY IN MILES                         <
>     HX     - HEAT INDEX                                  <
>     TC     - TEMPERATURE IN CELSIUS                      <
>     VRB    - VARIABLE WIND DIRECTION                     <
>                                                          <
>>>>>>>>>>>>>>>>>>>>>>>>>>>> KEY <<<<<<<<<<<<<<<<<<<<<<<<<<<






USA.gov is the U.S. government's official web portal to all federal, state and local government web resources and services.